AirNav   Air Wisconsin pilot careers
 
 960 users online  

T67 Hicks Airfield
Fort Worth, Texas, USA

GOING TO FORT WORTH?


FAA INFORMATION EFFECTIVE 26 APRIL 2018

Location

FAA Identifier: T67
Lat/Long: 32-55-52.4520N / 097-24-42.0690W
32-55.874200N / 097-24.701150W
32.9312367 / -97.4116858
(estimated)
Elevation: 855 ft. / 261 m (estimated)
Variation: 07E (1986)
From city: 14 miles NW of FORT WORTH, TX
Time zone: UTC -5 (UTC -6 during Standard Time)
Zip code: 76052

Airport Operations

Airport use: Open to the public
Activation date: 04/1986
Control tower: no
ARTCC: FORT WORTH CENTER
FSS: FORT WORTH FLIGHT SERVICE STATION
NOTAMs facility: FTW (NOTAM-D service available)
Attendance: UNATNDD
Pattern altitude: 1500 ft. MSL
Wind indicator: yes
Segmented circle: no
Lights: SS-SR
Beacon: white-green (lighted land airport)
Operates sunset to sunrise.

Airport Communications

CTAF/UNICOM: 123.05
CLEARANCE DELIVERY: 125.9
WX ASOS at AFW (6 nm NE): PHONE 817-491-6188
WX ASOS at FTW (7 nm S): PHONE 817-740-3346
WX ASOS at DFW (19 nm E): PHONE 972-615-2608
WX ASOS at DTO (19 nm NE): 119.325 (940-383-8457)

Nearby radio navigation aids

VOR radial/distance  VOR name  Freq  Var
FUZr276/12.0RANGER VORTAC115.7006E
TTTr275/19.1MAVERICK VOR/DME113.1006E
CVEr269/25.7COWBOY VOR/DME116.2006E
MQPr058/32.0MILLSAP VORTAC117.7009E

 
NDB name  Hdg/Dist  Freq  Var  ID
MUFIN312/3.036508EFT ..-. -

Airport Services

Fuel available: 100LL
FUEL AVBL 24 HRS WITH CREDIT CARD.
Parking: tiedowns
Airframe service: MAJOR
Powerplant service: MAJOR

Runway Information

Runway 14/32

Dimensions: 3740 x 60 ft. / 1140 x 18 m
Surface: asphalt, in good condition
Runway edge lights: medium intensity
RUNWAY 14  RUNWAY 32
Traffic pattern: leftleft
Displaced threshold: 340 ft.191 ft.
Markings: basic, in good conditionbasic, in good condition
Visual slope indicator: 2-light PAPI on left (3.00 degrees glide path)2-light PAPI on left (3.00 degrees glide path)
Obstructions: 27 ft. rr, 201 ft. from runway, 30 ft. right of centerline
+20' RR 60' R AT THR.
5 ft. fence, marked, 201 ft. from runway, 25 ft. left of centerline
15 FT ENTRANCE ROAD 50 FT FM THLD; 20 FT RR 122 FT L AT THLD.

Airport Ownership and Management from official FAA records

Ownership: Privately-owned
Owner: HICKS AIRFIELD PILOTS ASSN
100 AVIATOR DR.
FORT WORTH, TX 76179
Manager: MICHAEL REDDICK
593 AVIATOR DR.
FORT WORTH, TX 76179
Phone 817-992-2411

Airport Operational Statistics

Aircraft based on the field: 328
Single engine airplanes: 300
Multi engine airplanes: 22
Helicopters: 4
Ultralights: 2
    
Aircraft operations: avg 296/day *
90% local general aviation
10% transient general aviation
* for 12-month period ending 29 June 2016

Additional Remarks

RY 14/32 RR PARALLEL & ADJ TO RY ON SW SIDE WITHIN PRIMARY SFC.
ULTRALIGHT OPNS INVOF ARPT.
CALM WIND RY 14.
UNCONTROLLED VEHICLE TRAFFIC INVOF HANGARS & ON TWYS.
FOR CD CTC REGIONAL APCH AT 972-615-2799.

Instrument Procedures

There are no published instrument procedures at T67.

Some nearby airports with instrument procedures:

4T2 - Kenneth Copeland Airport (5 nm NW)
KAFW - Fort Worth Alliance Airport (6 nm NE)
KFTW - Fort Worth Meacham International Airport (7 nm S)
KNFW - Fort Worth Naval Air Station JRB (Carswell Field) Airport (10 nm S)
KWEA - Parker County Airport (18 nm SW)
KDFW - Dallas-Fort Worth International Airport (19 nm E)
KDTO - Denton Enterprise Airport (19 nm NE)
 
Loc | Ops | Rwys | IFR | FBO | Links
Com | Nav | Svcs | Stats | Notes

AirNav Hotels Sweepstakes
 
Area around T67 (Hicks Airfield)
 
Road maps at: MapQuest Bing Google
 
Aerial photo
WARNING: Photo may not be current or correct
Aerial photo of T67 (Hicks Airfield)
Photo taken 17-Jul-2007

Do you have a better or more recent aerial photo of Hicks Airfield that you would like to share? If so, please send us your photo.

 
Sectional chart

 
Airport distance calculator
Flying to Hicks Airfield? Find the distance to fly.

From to T67

Sunrise and sunset
Times for 20-May-2018
 Local
(UTC-5)
 Zulu
(UTC)
Morning civil twilight06:0111:01
Sunrise06:2811:28
Sunset20:2401:24
Evening civil twilight20:5201:52

Current date and time
Zulu (UTC)  20-May-2018 23:30:17
Local (UTC-5)  20-May-2018 18:30:17
 
METAR
KAFW 
5nm NE 
202253Z 20003KT 10SM FEW045 SCT130 SCT230 BKN300 27/18 A2998 RMK AO2 SLP142 T02670183
KFTW 
6nm S 
202253Z 14005KT 10SM CLR 28/19 A2998 RMK AO2 SLP144 T02780194
KNFW 
10nm S 
202252Z AUTO 11004KT 10SM FEW039 27/18 A2999 RMK AO2 SLP138 T02720183 $
KDTO 
19nm NE 
202253Z 18003KT 10SM CLR 27/18 A2999 RMK AO2 SLP146 T02670183
KDFW 
20nm E 
202253Z 24008KT 10SM FEW030 SCT130 BKN250 BKN300 26/18 A2997 RMK AO2 SLP140 T02610178 $
TAF
KAFW 
5nm NE 
202159Z 2022/2118 17005KT P6SM SCT035 BKN250 FM210000 13006KT P6SM SCT035 BKN250 FM211300 11004KT P6SM BKN025 FM211600 16008KT P6SM SCT040
KFTW 
6nm S 
202159Z 2022/2118 16005KT P6SM SCT035 BKN250 FM210000 13006KT P6SM SCT035 BKN250 FM211300 11004KT P6SM BKN025 FM211600 16008KT P6SM SCT040
KNFW 
10nm S 
2018/2115 VRB06KT 9999 VCSH FEW020 SCT080 BKN150 BKN250 QNH2998INS FM202300 14007KT 9999 SCT050 BKN150 OVC250 QNH2997INS FM210900 16009KT 9999 -SHRA VCTS OVC012CB QNH2999INS T28/1921Z T18/2012Z AMD 1822 FN20048
KDFW 
20nm E 
202159Z 2022/2124 17005KT P6SM SCT035 BKN250 FM210000 13006KT P6SM SCT035 BKN250 FM211300 11004KT P6SM BKN025 FM211600 16008KT P6SM SCT040
NOTAMs
Click for the latest NOTAMs
NOTAMs are issued by the DoD/FAA and will open in a separate window not controlled by AirNav.

 

 
 

FBO, Fuel Providers, and Aircraft Ground Support

  
 Business Name 
 
 Contact 
 
 Services / Description 
 
Fuel Prices
 
Comments
  
Rio Concho Aviation 817-233-1058
[email]
Aviation fuel, Aircraft parking (ramp or tiedown), Passenger terminal and lounge, Aircraft charters, Catering, Pilot supplies, Public telephone, Restrooms, Restaurant

More info about Rio Concho Aviation
Avfuel
100LL
SS $4.33 
 Updated 15-May-2018
 
   1 read write
SS=Self service
Update Fuel Prices
 

Would you like to see your business listed on this page?

 If your business provides an interesting product or service to pilots, flight crews, aircraft, or users of the Hicks Airfield, you should consider listing it here.  To start the listing process, click on the button below
 
Add a business
 

Other Pages about Hicks Airfield

www.t67.org
 
Update a link
 
Copyright © AirNav, LLC. All rights reserved. Privacy Policy  Contact